This demonstration page uses our WeatherBlox Daily Observations layout. Learn more.

Left ArrowRight Arrow

40.97296, -117.73568

Hourly Observations for March 8, 2016

Temp ( °F °C ) Dew Point ( °F °C ) Humidity (%) Winds ( mph kmh ) Pressure ( in mb ) Visibility ( mi km ) Precip ( " mm )
12:56 am 00:56 Mostly Cloudy 32 0 30 -1.1 92 92 WSW 6 9 29.95 1014 10 16 0.00 0.00
1:56 am 01:56 Cloudy 33 0.6 31 -0.6 92 92 Calm 29.95 1014 10 16 0.00 0.00
2:37 am 02:37 Cloudy 34 1.1 31 -0.6 89 89 SSW 3 6 30.03 1017 10 16 0.00 0.00
2:56 am 02:56 Cloudy with Light Rain 34 1.1 32 0 92 92 S 5 7 29.95 1014 10 16 0.00 0.03
3:56 am 03:56 Cloudy 33 0.6 32 0 96 96 S 5 7 29.97 1015 10 16 0.00 0.03
4:56 am 04:56 Cloudy 32 0 31 -0.6 96 96 SE 5 7 29.99 1016 10 16 0.00 0.00
5:56 am 05:56 Mostly Cloudy 32 0 31 -0.6 96 96 S 8 13 30.00 1016 10 16 0.00 0.00
6:56 am 06:56 Cloudy 32 0 31 -0.6 96 96 SE 8 13 30.02 1017 10 16 0.00 0.00
7:56 am 07:56 Cloudy 36 2.2 33 0.6 89 89 S 8 13 30.02 1017 10 16 0.00 0.00
8:56 am 08:56 Mostly Sunny 40 4.4 33 0.6 77 77 S 6 9 30.03 1017 10 16 0.00 0.00
9:56 am 09:56 Mostly Cloudy 42 5.6 31 -0.6 65 65 Calm 30.00 1016 10 16 0.00 0.00
10:56 am 10:56 Cloudy 44 6.7 31 -0.6 60 60 S 6 9 29.98 1015 10 16 0.00 0.00
11:56 am 11:56 Mostly Cloudy 48 8.9 27 -2.8 44 44 SW 13 20 29.96 1014 10 16 0.00 0.00
12:56 pm 12:56 Mostly Cloudy 48 8.9 28 -2.2 46 46 S 12 19 29.92 1013 10 16 0.00 0.00
1:56 pm 13:56 Cloudy 48 8.9 28 -2.2 46 46 SSW 12 19 29.88 1012 10 16 0.00 0.00
2:56 pm 14:56 Cloudy 48 8.9 27 -2.8 44 44 SW 13 20 29.88 1012 10 16 0.00 0.00
3:56 pm 15:56 Cloudy with Light Rain 42 5.6 34 1.1 73 73 SW 13 20 29.91 1013 10 16 0.00 0.03
4:56 pm 16:56 Cloudy 43 6.1 32 0 65 65 SW 7 11 29.94 1014 10 16 0.00 0.03
5:56 pm 17:56 Cloudy 43 6.1 32 0 65 65 WSW 7 11 29.95 1014 10 16 0.00 0.00
6:56 pm 18:56 Cloudy 42 5.6 29 -1.7 60 60 W 10 17 29.97 1015 10 16 0.00 0.00
7:56 pm 19:56 Clear 41 5 29 -1.7 62 62 SW 10 17 29.96 1015 10 16 0.00 0.00
8:56 pm 20:56 Clear 40 4.4 29 -1.7 65 65 Calm 29.98 1015 10 16 0.00 0.00
9:56 pm 21:56 Clear 38 3.3 29 -1.7 70 70 WSW 5 7 29.99 1016 10 16 0.00 0.00
10:56 pm 22:56 Clear 38 3.3 28 -2.2 68 68 SSW 5 7 30.00 1016 10 16 0.00 0.00
11:56 pm 23:56 Clear 35 1.7 28 -2.2 76 76 SE 5 7 30.00 1016 10 16 0.00 0.00

Powered by AerisWeather